BMCB-7 Weather Reports


time (UTC)temp
F
wind
direction
speed
knots
gust
knots
rain 1hr
in
rain 24hr
in
rain mn
in
humidity
%
barometer
mb
20260902073041 57 221 1.7 2.6 0.00 0.00 0.00 86 1027.4
20260902071041 55 229 2.6 3.5 0.00 0.00 0.00 89 1027.3
20260902070043 54 239 1.7 3.5 0.00 0.00 0.00 92 1027.3
20260902064044 53 245 2.6 3.5 0.00 0.00 0.00 91 1027.3
20260902063043 53 244 2.6 4.3 0.00 0.00 0.00 91 1027.4
20260902062042 53 209 1.7 4.3 0.00 0.00 0.00 91 1027.3
20260902061043 53 249 1.7 4.3 0.00 0.00 0.00 92 1027.2
20260902060043 53 277 1.7 2.6 0.00 0.00 0.00 93 1027.1
20260902055042 53 266 2.6 3.5 0.00 0.00 0.00 91 1027.0
20260902054044 53 285 1.7 3.5 0.00 0.00 0.00 92 1027.1
20260902053041 52 340 1.7 2.6 0.00 0.00 0.00 92 1027.0
20260902052042 52 309 1.7 2.6 0.00 0.00 0.00 94 1027.0
20260902051042 51 295 1.7 2.6 0.00 0.00 0.00 94 1026.9
20260902050042 51 267 0.9 2.6 0.00 0.00 0.00 95 1026.7
20260902045043 51 349 0.9 2.6 0.00 0.00 0.00 95 1026.8
20260902044040 51 32 0.0 0.0 0.00 0.00 0.00 95 1026.8
20260902042041 50 32 0.9 1.7 0.00 0.00 0.00 95 1026.8
20260902041042 51 32 0.9 2.6 0.00 0.00 0.00 94 1026.7
20260902040040 51 30 1.7 2.6 0.00 0.00 0.00 94 1026.6
20260902035040 51 29 0.9 1.7 0.00 0.00 0.00 93 1026.7
20260902034040 51 276 0.9 2.6 0.00 0.00 0.00 92 1026.7
20260902033040 52 241 2.6 4.3 0.00 0.00 0.00 91 1026.8
20260902032040 53 276 1.7 4.3 0.00 0.00 0.00 89 1026.8
20260902031041 54 220 0.9 2.6 0.00 0.00 0.00 86 1027.0
20260902030040 54 157 0.9 2.6 0.00 0.00 0.00 86 1027.0
20260902025041 53 172 0.9 2.6 0.00 0.00 0.00 90 1027.0
20260902023041 53 201 0.9 2.6 0.00 0.00 0.00 90 1026.9
20260902022040 53 162 0.9 2.6 0.00 0.00 0.00 90 1027.0
20260902021042 53 191 1.7 3.5 0.00 0.00 0.00 90 1027.0
20260902020041 53 276 2.6 4.3 0.00 0.00 0.00 91 1027.0
20260902015042 53 275 3.5 4.3 0.00 0.00 0.00 89 1027.0
20260902014045 54 275 3.5 4.3 0.00 0.00 0.00 87 1026.9
20260902013051 54 278 1.7 3.5 0.00 0.00 0.00 88 1026.9
20260902012055 54 278 1.7 3.5 0.00 0.00 0.00 89 1027.0
20260902011059 54 247 0.9 2.6 0.00 0.00 0.00 89 1027.1
20260902010058 54 233 0.9 1.7 0.00 0.00 0.00 89 1027.2
20260902005103 53 216 0.9 1.7 0.00 0.00 0.00 88 1027.2
20260902004103 53 197 0.9 1.7 0.00 0.00 0.00 87 1027.1
20260902003101 54 199 1.7 2.6 0.00 0.00 0.00 87 1027.1
20260902002101 54 226 1.7 2.6 0.00 0.00 0.00 85 1027.1
20260902001140 55 229 1.7 2.6 0.00 0.00 0.00 84 1027.0
20260902000156 55 172 0.9 2.6 0.00 0.00 0.00 84 1027.1
20260901234152 55 158 0.9 1.7 0.00 0.00 0.00 84 1027.1
20260901233152 55 158 0.9 1.7 0.00 0.00 0.00 84 1027.1
20260901232152 55 169 0.9 2.6 0.00 0.00 0.00 84 1027.2
20260901231147 55 270 1.7 3.5 0.00 0.00 0.00 83 1027.2
20260901230147 55 287 2.6 3.5 0.00 0.00 0.00 83 1027.2
20260901225143 55 285 1.7 3.5 0.00 0.00 0.00 83 1027.3
20260901224140 55 288 2.6 4.3 0.00 0.00 0.00 83 1027.3
20260901222140 55 278 2.6 4.3 0.00 0.00 0.00 82 1027.4
20260901221138 56 282 2.6 3.5 0.00 0.00 0.00 81 1027.3
20260901220139 55 282 2.6 3.5 0.00 0.00 0.00 82 1027.3
20260901215133 55 282 3.5 4.3 0.00 0.00 0.00 82 1027.5
20260901214135 55 290 2.6 3.5 0.00 0.00 0.00 82 1027.5
20260901213132 56 278 2.6 4.3 0.00 0.00 0.00 80 1027.5
20260901212134 57 303 2.6 3.5 0.00 0.00 0.00 77 1027.5
20260901210130 58 300 3.5 4.3 0.00 0.00 0.00 76 1027.4
20260901204127 59 302 4.3 5.2 0.00 0.00 0.00 74 1027.4
20260901203125 59 310 3.5 5.2 0.00 0.00 0.00 73 1027.4
20260901202125 59 294 3.5 4.3 0.00 0.00 0.00 72 1027.3
20260901201128 59 284 3.5 4.3 0.00 0.00 0.00 73 1027.2
20260901200124 59 288 2.6 3.5 0.00 0.00 0.00 72 1027.1
20260901195119 60 280 2.6 3.5 0.00 0.00 0.00 71 1027.0
20260901194118 60 284 3.5 4.3 0.00 0.00 0.00 71 1026.8
20260901193116 60 288 3.5 4.3 0.00 0.00 0.00 70 1026.9
20260901192117 60 285 2.6 3.5 0.00 0.00 0.00 69 1026.8
20260901191115 61 287 1.7 2.6 0.00 0.00 0.00 68 1026.8
20260901190114 61 285 2.6 3.5 0.00 0.00 0.00 69 1026.7
20260901185114 61 278 3.5 4.3 0.00 0.00 0.00 68 1026.6
20260901184110 62 286 2.6 4.3 0.00 0.00 0.00 66 1026.5
20260901183108 63 287 3.5 6.1 0.00 0.00 0.00 65 1026.4
20260901182112 64 292 4.3 7.8 0.00 0.00 0.00 63 1026.3
20260901181106 65 289 4.3 7.0 0.00 0.00 0.00 61 1026.3
20260901180109 66 298 5.2 11.3 0.00 0.00 0.00 59 1026.3
20260901175107 66 255 5.2 11.3 0.00 0.00 0.00 58 1026.3
20260901174105 67 265 3.5 5.2 0.00 0.00 0.00 57 1026.2
20260901172103 66 259 7.0 11.3 0.00 0.00 0.00 57 1026.2
20260901171104 67 280 6.1 10.4 0.00 0.00 0.00 56 1026.0
20260901170100 68 264 5.2 8.7 0.00 0.00 0.00 53 1025.9
20260901164101 69 235 5.2 9.6 0.00 0.00 0.00 52 1025.8
20260901163058 69 224 4.3 8.7 0.00 0.00 0.00 52 1025.8
20260901162059 70 241 5.2 8.7 0.00 0.00 0.00 50 1025.7
20260901161055 70 254 7.0 12.2 0.00 0.00 0.00 50 1025.7
20260901160057 68 272 4.3 10.4 0.00 0.00 0.00 53 1025.9
20260901155054 69 263 7.0 10.4 0.00 0.00 0.00 51 1025.8
20260901154055 69 245 4.3 10.4 0.00 0.00 0.00 53 1025.9
20260901153054 69 259 6.1 11.3 0.00 0.00 0.00 50 1025.8
20260901152053 69 266 7.0 11.3 0.00 0.00 0.00 51 1025.8
20260901151053 70 293 5.2 9.6 0.00 0.00 0.00 51 1025.7
20260901145051 71 262 6.1 11.3 0.00 0.00 0.00 53 1025.7
20260901144052 71 279 7.0 12.2 0.00 0.00 0.00 53 1025.7
20260901143051 71 284 6.1 12.2 0.00 0.00 0.00 53 1025.7
20260901142054 69 284 6.1 12.2 0.00 0.00 0.00 55 1025.9
20260901141052 69 245 7.0 12.2 0.00 0.00 0.00 56 1026.0
20260901140055 69 251 7.8 13.0 0.00 0.00 0.00 55 1025.9
20260901135048 70 268 7.0 11.3 0.00 0.01 0.00 54 1025.9
20260901134049 70 265 7.0 11.3 0.00 0.01 0.00 56 1026.0
20260901133050 70 269 5.2 7.8 0.00 0.01 0.00 56 1026.1
20260901132046 69 310 5.2 7.8 0.00 0.02 0.00 57 1026.2
20260901131044 68 286 6.1 8.7 0.00 0.02 0.00 61 1026.3
20260901125047 66 274 6.1 11.3 0.00 0.02 0.00 65 1026.6
20260901124046 66 267 7.8 13.9 0.00 0.02 0.00 64 1026.6
20260901123045 67 272 7.8 13.0 0.00 0.02 0.00 62 1026.5
20260901122044 68 269 7.8 13.0 0.00 0.02 0.00 61 1026.4
20260901121045 68 284 5.2 11.3 0.00 0.02 0.00 63 1026.5
20260901115042 66 279 5.2 8.7 0.00 0.02 0.00 65 1026.5
20260901113043 65 243 6.1 12.2 0.00 0.02 0.00 67 1026.7
20260901112043 65 254 7.0 12.2 0.00 0.02 0.00 66 1026.8
20260901111047 66 258 7.8 11.3 0.00 0.02 0.00 66 1026.7
20260901110044 67 257 6.1 13.0 0.00 0.02 0.00 63 1026.6
20260901105042 66 264 8.7 13.0 0.00 0.02 0.00 66 1026.7
20260901104043 65 258 6.1 10.4 0.00 0.02 0.00 66 1026.9
20260901103042 65 258 7.0 11.3 0.00 0.02 0.00 68 1026.9
20260901102042 64 255 7.8 13.0 0.00 0.07 0.00 67 1026.9
20260901101044 64 236 8.7 14.8 0.00 0.07 0.00 70 1026.9
20260901100045 64 232 7.0 13.0 0.00 0.07 0.00 70 1026.9
20260901095043 65 239 7.8 12.2 0.00 0.07 0.00 69 1026.8
20260901094042 66 234 7.8 12.2 0.00 0.07 0.00 68 1026.6
20260901093041 64 230 7.0 11.3 0.00 0.07 0.00 72 1026.7
20260901092043 64 238 7.0 11.3 0.00 0.07 0.00 72 1026.7
20260901091043 64 250 7.0 12.2 0.00 0.07 0.00 75 1026.7
20260901090043 63 250 6.1 11.3 0.00 0.07 0.00 77 1026.7
20260901085042 62 260 7.0 11.3 0.00 0.07 0.00 78 1026.7
20260901084041 62 239 6.1 12.2 0.00 0.07 0.00 79 1026.7
20260901083042 62 234 6.1 10.4 0.00 0.07 0.00 81 1026.6
20260901082041 61 219 4.3 7.8 0.00 0.07 0.00 83 1026.7
20260901075043 60 232 5.2 7.8 0.00 0.07 0.00 88 1026.6
20260901074041 60 240 6.1 8.7 0.00 0.07 0.00 89 1026.5